When you browse on this site, cookies collect data to enhance your experience and personalize the content and advertising you see.
Visit our Privacy Policy to learn more. By continuing to use the site, you agree to this use of cookies and data.
EN

Hourly Weather Arhanskoe

Today, 27 September, Sunday

Time Temperature Precipitation Wind Pressure Humidity
00:00 +12°C° 0 mm 2 mps 750 mmHg 79%
01:00 +10°C° 0 mm 2 mps 750 mmHg 80%
02:00 +10°C° 0 mm 2 mps 750 mmHg 80%
03:00 +10°C° 0 mm 2 mps 750 mmHg 82%
04:00 +10°C° 0 mm 2 mps 750 mmHg 83%
05:00 +10°C° 0 mm 2 mps 750 mmHg 84%
06:00 +11°C° 0 mm 3 mps 750 mmHg 80%
07:00 +12°C° 0 mm 3 mps 751 mmHg 76%
08:00 +13°C° 0 mm 3 mps 751 mmHg 72%
09:00 +16°C° 0 mm 3 mps 751 mmHg 67%
10:00 +17°C° 0 mm 3 mps 751 mmHg 63%
11:00 +18°C° 0 mm 3 mps 751 mmHg 58%
12:00 +19°C° 0 mm 4 mps 752 mmHg 55%
13:00 +19°C° 0 mm 4 mps 752 mmHg 53%
14:00 +19°C° 0 mm 4 mps 752 mmHg 51%
15:00 +17°C° 0 mm 3 mps 752 mmHg 56%
16:00 +16°C° 0 mm 3 mps 752 mmHg 61%
17:00 +14°C° 0 mm 2 mps 752 mmHg 66%
18:00 +12°C° 0 mm 3 mps 752 mmHg 67%
19:00 +11°C° 0 mm 3 mps 752 mmHg 69%
20:00 +10°C° 0 mm 3 mps 752 mmHg 71%
21:00 +10°C° 0 mm 3 mps 752 mmHg 72%
22:00 +9°C° 0 mm 3 mps 752 mmHg 73%
23:00 +9°C° 0 mm 3 mps 752 mmHg 74%

Tomorrow, 28 September, Monday

Time Temperature Precipitation Wind Pressure Humidity
00:00 +9°C° 0 mm 3 mps 752 mmHg 75%
01:00 +8°C° 0 mm 3 mps 752 mmHg 76%
02:00 +8°C° 0 mm 3 mps 752 mmHg 78%
03:00 +8°C° 0 mm 3 mps 752 mmHg 78%
04:00 +8°C° 0 mm 3 mps 752 mmHg 78%
05:00 +8°C° 0 mm 3 mps 752 mmHg 77%
06:00 +8°C° 0 mm 3 mps 752 mmHg 75%
07:00 +9°C° 0 mm 3 mps 752 mmHg 72%
08:00 +10°C° 0 mm 4 mps 752 mmHg 69%
09:00 +11°C° 0 mm 4 mps 752 mmHg 66%
10:00 +12°C° 0 mm 4 mps 752 mmHg 63%
11:00 +13°C° 0 mm 4 mps 752 mmHg 59%
12:00 +13°C° 0 mm 4 mps 752 mmHg 59%
13:00 +14°C° 0 mm 4 mps 752 mmHg 58%
14:00 +14°C° 0 mm 4 mps 752 mmHg 57%
15:00 +14°C° 0 mm 4 mps 752 mmHg 61%
16:00 +13°C° 0 mm 3 mps 752 mmHg 66%
17:00 +12°C° 0 mm 3 mps 752 mmHg 70%
18:00 +12°C° 0.1 mm 3 mps 752 mmHg 72%
19:00 +11°C° 0.1 mm 3 mps 751 mmHg 74%
20:00 +11°C° 0.1 mm 4 mps 751 mmHg 76%
21:00 +11°C° 0 mm 3 mps 751 mmHg 75%
22:00 +10°C° 0 mm 3 mps 752 mmHg 74%
23:00 +10°C° 0 mm 3 mps 752 mmHg 73%

Day after tomorrow, 29 September, Tuesday

Time Temperature Precipitation Wind Pressure Humidity
00:00 +10°C° 0 mm 3 mps 752 mmHg 74%
01:00 +9°C° 0 mm 3 mps 752 mmHg 75%
02:00 +9°C° 0 mm 3 mps 752 mmHg 76%
03:00 +9°C° 0 mm 3 mps 752 mmHg 78%
04:00 +9°C° 0 mm 3 mps 751 mmHg 80%
05:00 +9°C° 0 mm 3 mps 751 mmHg 81%
06:00 +10°C° 0 mm 3 mps 751 mmHg 79%
07:00 +10°C° 0 mm 3 mps 752 mmHg 76%
08:00 +11°C° 0 mm 3 mps 752 mmHg 73%
09:00 +12°C° 0 mm 3 mps 752 mmHg 71%
10:00 +12°C° 0 mm 3 mps 752 mmHg 70%
11:00 +13°C° 0 mm 3 mps 752 mmHg 68%
12:00 +14°C° 0 mm 3 mps 752 mmHg 66%
13:00 +16°C° 0 mm 3 mps 752 mmHg 64%
14:00 +15°C° 0 mm 4 mps 751 mmHg 61%
15:00 +14°C° 0 mm 4 mps 751 mmHg 63%
16:00 +13°C° 0 mm 3 mps 751 mmHg 66%
17:00 +12°C° 0 mm 3 mps 751 mmHg 68%
18:00 +12°C° 0 mm 3 mps 751 mmHg 67%
19:00 +12°C° 0 mm 3 mps 751 mmHg 67%
20:00 +12°C° 0 mm 3 mps 751 mmHg 67%
21:00 +12°C° 0 mm 3 mps 751 mmHg 67%
22:00 +11°C° 0 mm 3 mps 751 mmHg 66%
23:00 +11°C° 0 mm 3 mps 751 mmHg 66%

30 September, Wednesday

Time Temperature Precipitation Wind Pressure Humidity
00:00 +11°C° 0 mm 3 mps 751 mmHg 67%
01:00 +10°C° 0 mm 3 mps 751 mmHg 67%
02:00 +10°C° 0 mm 3 mps 751 mmHg 67%
03:00 +9°C° 0 mm 3 mps 751 mmHg 68%
04:00 +9°C° 0 mm 3 mps 751 mmHg 68%
05:00 +8°C° 0 mm 3 mps 751 mmHg 69%
06:00 +9°C° 0 mm 3 mps 751 mmHg 67%
07:00 +9°C° 0 mm 3 mps 751 mmHg 66%
08:00 +10°C° 0 mm 3 mps 751 mmHg 64%
09:00 +11°C° 0 mm 3 mps 751 mmHg 61%
10:00 +12°C° 0 mm 4 mps 751 mmHg 57%
11:00 +13°C° 0 mm 4 mps 751 mmHg 53%
12:00 +14°C° 0 mm 4 mps 751 mmHg 53%
13:00 +14°C° 0 mm 4 mps 751 mmHg 52%
14:00 +15°C° 0 mm 4 mps 751 mmHg 52%
15:00 +14°C° 0 mm 3 mps 751 mmHg 56%
16:00 +13°C° 0 mm 3 mps 751 mmHg 61%
17:00 +13°C° 0 mm 2 mps 751 mmHg 66%
18:00 +12°C° 0 mm 2 mps 751 mmHg 69%
19:00 +12°C° 0 mm 2 mps 751 mmHg 72%
20:00 +10°C° 0 mm 2 mps 751 mmHg 75%
21:00 +10°C° 0 mm 2 mps 751 mmHg 77%
22:00 +10°C° 0 mm 3 mps 751 mmHg 80%
23:00 +10°C° 0 mm 3 mps 752 mmHg 83%

1 October, Thursday

Time Temperature Precipitation Wind Pressure Humidity
00:00 +10°C° 0 mm 2 mps 751 mmHg 84%
01:00 +9°C° 0 mm 2 mps 751 mmHg 86%
02:00 +9°C° 0 mm 2 mps 751 mmHg 87%
03:00 +9°C° 0 mm 2 mps 751 mmHg 88%
04:00 +8°C° 0 mm 2 mps 751 mmHg 88%
05:00 +8°C° 0 mm 2 mps 751 mmHg 89%
06:00 +9°C° 0 mm 2 mps 752 mmHg 85%
07:00 +10°C° 0 mm 3 mps 752 mmHg 80%
08:00 +10°C° 0 mm 3 mps 752 mmHg 76%
09:00 +12°C° 0 mm 3 mps 752 mmHg 72%
10:00 +13°C° 0 mm 3 mps 751 mmHg 68%
11:00 +14°C° 0 mm 3 mps 751 mmHg 64%
12:00 +16°C° 0 mm 3 mps 751 mmHg 62%
13:00 +16°C° 0 mm 3 mps 751 mmHg 60%
14:00 +17°C° 0 mm 3 mps 751 mmHg 58%
15:00 +16°C° 0 mm 3 mps 751 mmHg 63%
16:00 +14°C° 0 mm 2 mps 751 mmHg 69%
17:00 +13°C° 0 mm 2 mps 751 mmHg 74%
18:00 +13°C° 0 mm 2 mps 751 mmHg 76%
19:00 +12°C° 0 mm 2 mps 751 mmHg 78%
20:00 +11°C° 0 mm 3 mps 751 mmHg 80%
21:00 +10°C° 0 mm 3 mps 751 mmHg 81%
22:00 +10°C° 0 mm 2 mps 751 mmHg 81%
23:00 +10°C° 0 mm 2 mps 752 mmHg 82%

2 October, Friday

Time Temperature Precipitation Wind Pressure Humidity
00:00 +9°C° 0 mm 2 mps 751 mmHg 84%
01:00 +9°C° 0 mm 2 mps 751 mmHg 85%
02:00 +8°C° 0 mm 2 mps 751 mmHg 87%
03:00 +8°C° 0 mm 2 mps 751 mmHg 88%
04:00 +8°C° 0 mm 2 mps 751 mmHg 88%
05:00 +8°C° 0 mm 2 mps 751 mmHg 89%
06:00 +9°C° 0 mm 3 mps 751 mmHg 84%
07:00 +10°C° 0 mm 3 mps 751 mmHg 79%
08:00 +11°C° 0 mm 3 mps 751 mmHg 73%
09:00 +12°C° 0 mm 3 mps 752 mmHg 69%
10:00 +14°C° 0 mm 3 mps 752 mmHg 64%
11:00 +16°C° 0 mm 3 mps 752 mmHg 59%
12:00 +17°C° 0 mm 4 mps 752 mmHg 59%
13:00 +17°C° 0 mm 4 mps 752 mmHg 58%
14:00 +18°C° 0 mm 4 mps 751 mmHg 57%
15:00 +16°C° 0 mm 3 mps 751 mmHg 64%
16:00 +14°C° 0 mm 3 mps 751 mmHg 71%
17:00 +12°C° 0 mm 3 mps 751 mmHg 78%
18:00 +12°C° 0 mm 3 mps 752 mmHg 80%
19:00 +11°C° 0 mm 3 mps 752 mmHg 83%
20:00 +11°C° 0 mm 3 mps 752 mmHg 85%
21:00 +11°C° 0 mm 3 mps 752 mmHg 86%
22:00 +10°C° 0 mm 3 mps 752 mmHg 88%
23:00 +10°C° 0 mm 3 mps 752 mmHg 89%
Show more